Time,TemperatureF,DewpointF,PressureIn,WindDirection,WindDirectionDegrees,WindSpeedMPH,WindSpeedGustMPH,Humidity,HourlyPrecipIn,Conditions,Clouds,dailyrainin,SoftwareType,DateUTC
2013-08-24 00:12:00,73.0,55.9,29.93,West,270,0.0,-999.0,55,-99.99,,,0.00,Acu-Link.com,2013-08-24 04:12:00,
2013-08-24 00:27:00,73.0,55.9,29.94,NE,45,1.7,-999.0,55,-99.99,,,0.00,Acu-Link.com,2013-08-24 04:27:00,
2013-08-24 00:42:00,72.7,56.1,29.94,ENE,67,1.1,-999.0,56,-99.99,,,0.00,Acu-Link.com,2013-08-24 04:42:00,
2013-08-24 00:58:00,72.1,55.5,29.95,East,90,0.0,-999.0,56,-99.99,,,0.00,Acu-Link.com,2013-08-24 04:58:00,
2013-08-24 01:13:00,72.0,55.9,29.95,ENE,67,0.0,-999.0,57,-99.99,,,0.00,Acu-Link.com,2013-08-24 05:13:00,
2013-08-24 01:28:00,71.2,55.2,29.95,East,90,0.0,-999.0,57,-99.99,,,0.00,Acu-Link.com,2013-08-24 05:28:00,
2013-08-24 01:44:00,71.2,54.7,29.95,SSE,157,1.7,-999.0,56,-99.99,,,0.00,Acu-Link.com,2013-08-24 05:44:00,
2013-08-24 01:59:00,71.2,54.2,29.95,ESE,112,0.0,-999.0,55,-99.99,,,0.00,Acu-Link.com,2013-08-24 05:59:00,
2013-08-24 02:14:00,70.9,53.4,29.96,ESE,112,0.0,-999.0,54,-99.99,,,0.00,Acu-Link.com,2013-08-24 06:14:00,
2013-08-24 02:29:00,70.9,52.9,29.97,ESE,112,0.0,-999.0,53,-99.99,,,0.00,Acu-Link.com,2013-08-24 06:29:00,
2013-08-24 02:45:00,70.3,52.9,29.97,ENE,67,0.0,-999.0,54,-99.99,,,0.00,Acu-Link.com,2013-08-24 06:45:00,
2013-08-24 03:00:00,69.8,52.9,29.97,NE,45,1.7,-999.0,55,-99.99,,,0.00,Acu-Link.com,2013-08-24 07:00:00,
2013-08-24 03:15:00,69.4,53.5,29.98,SSE,157,1.1,-999.0,57,-99.99,,,0.00,Acu-Link.com,2013-08-24 07:15:00,
2013-08-24 03:30:00,68.7,52.4,29.99,SSE,157,1.1,-999.0,56,-99.99,,,0.00,Acu-Link.com,2013-08-24 07:30:00,
2013-08-24 03:46:00,68.4,52.1,30.00,ESE,112,0.0,-999.0,56,-99.99,,,0.00,Acu-Link.com,2013-08-24 07:46:00,
2013-08-24 04:01:00,68.0,52.2,30.00,East,90,1.7,-999.0,57,-99.99,,,0.00,Acu-Link.com,2013-08-24 08:01:00,
2013-08-24 04:17:00,67.6,52.3,29.99,East,90,0.0,-999.0,58,-99.99,,,0.00,Acu-Link.com,2013-08-24 08:17:00,
2013-08-24 04:32:00,67.5,52.2,30.00,ESE,112,2.2,-999.0,58,-99.99,,,0.00,Acu-Link.com,2013-08-24 08:32:00,
2013-08-24 04:47:00,67.3,52.0,30.00,NE,45,0.0,-999.0,58,-99.99,,,0.00,Acu-Link.com,2013-08-24 08:47:00,
2013-08-24 05:02:00,67.1,51.8,30.01,ESE,112,1.1,-999.0,58,-99.99,,,0.00,Acu-Link.com,2013-08-24 09:02:00,
2013-08-24 05:17:00,66.6,51.8,30.01,East,90,0.0,-999.0,59,-99.99,,,0.00,Acu-Link.com,2013-08-24 09:17:00,
2013-08-24 05:32:00,66.4,51.6,30.02,ENE,67,1.7,-999.0,59,-99.99,,,0.00,Acu-Link.com,2013-08-24 09:32:00,
2013-08-24 05:47:00,66.4,52.1,30.02,SE,135,0.0,-999.0,60,-99.99,,,0.00,Acu-Link.com,2013-08-24 09:47:00,
2013-08-24 06:02:00,66.0,52.2,30.03,East,90,1.7,-999.0,61,-99.99,,,0.00,Acu-Link.com,2013-08-24 10:02:00,
2013-08-24 06:17:00,65.8,52.4,30.03,ESE,112,1.7,-999.0,62,-99.99,,,0.00,Acu-Link.com,2013-08-24 10:17:00,
2013-08-24 06:33:00,65.5,52.6,30.04,East,90,1.7,-999.0,63,-99.99,,,0.00,Acu-Link.com,2013-08-24 10:33:00,
2013-08-24 06:48:00,65.5,52.1,30.05,ENE,67,1.7,-999.0,62,-99.99,,,0.00,Acu-Link.com,2013-08-24 10:48:00,
2013-08-24 07:03:00,65.3,51.9,30.06,ESE,112,2.2,-999.0,62,-99.99,,,0.00,Acu-Link.com,2013-08-24 11:03:00,
2013-08-24 07:19:00,65.3,51.9,30.06,NNE,22,1.7,-999.0,62,-99.99,,,0.00,Acu-Link.com,2013-08-24 11:19:00,
2013-08-24 07:34:00,65.7,51.9,30.07,SE,135,1.7,-999.0,61,-99.99,,,0.00,Acu-Link.com,2013-08-24 11:34:00,
2013-08-24 07:49:00,65.7,51.9,30.07,NNE,22,2.2,-999.0,61,-99.99,,,0.00,Acu-Link.com,2013-08-24 11:49:00,
2013-08-24 08:05:00,65.7,51.9,30.08,East,90,0.0,-999.0,61,-99.99,,,0.00,Acu-Link.com,2013-08-24 12:05:00,
2013-08-24 08:20:00,66.0,52.6,30.09,East,90,2.2,-999.0,62,-99.99,,,0.00,Acu-Link.com,2013-08-24 12:20:00,
2013-08-24 08:35:00,66.0,52.6,30.09,West,270,0.0,-999.0,62,-99.99,,,0.00,Acu-Link.com,2013-08-24 12:35:00,
2013-08-24 08:50:00,66.7,53.3,30.09,SSW,202,1.7,-999.0,62,-99.99,,,0.00,Acu-Link.com,2013-08-24 12:50:00,
2013-08-24 09:05:00,67.5,54.0,30.09,East,90,2.7,-999.0,62,-99.99,,,0.00,Acu-Link.com,2013-08-24 13:05:00,
2013-08-24 09:21:00,68.7,54.7,30.09,East,90,1.1,-999.0,61,-99.99,,,0.00,Acu-Link.com,2013-08-24 13:21:00,
2013-08-24 09:36:00,69.4,55.4,30.10,ENE,67,1.7,-999.0,61,-99.99,,,0.00,Acu-Link.com,2013-08-24 13:36:00,
2013-08-24 09:51:00,70.5,55.0,30.11,West,270,1.7,-999.0,58,-99.99,,,0.00,Acu-Link.com,2013-08-24 13:51:00,
2013-08-24 10:06:00,71.1,55.1,30.10,East,90,4.7,-999.0,57,-99.99,,,0.00,Acu-Link.com,2013-08-24 14:06:00,
2013-08-24 10:22:00,71.2,55.2,30.11,ENE,67,3.2,-999.0,57,-99.99,,,0.00,Acu-Link.com,2013-08-24 14:22:00,
2013-08-24 10:37:00,72.0,55.4,30.11,East,90,0.0,-999.0,56,-99.99,,,0.00,Acu-Link.com,2013-08-24 14:37:00,
2013-08-24 10:52:00,72.3,55.7,30.11,SW,225,1.7,-999.0,56,-99.99,,,0.00,Acu-Link.com,2013-08-24 14:52:00,
2013-08-24 11:07:00,73.4,56.2,30.11,SW,225,1.7,-999.0,55,-99.99,,,0.00,Acu-Link.com,2013-08-24 15:07:00,
2013-08-24 11:23:00,73.6,54.9,30.11,South,180,2.2,-999.0,52,-99.99,,,0.00,Acu-Link.com,2013-08-24 15:23:00,
2013-08-24 11:38:00,74.7,55.4,30.11,SW,225,1.7,-999.0,51,-99.99,,,0.00,Acu-Link.com,2013-08-24 15:38:00,
2013-08-24 11:53:00,75.4,56.0,30.11,SW,225,0.0,-999.0,51,-99.99,,,0.00,Acu-Link.com,2013-08-24 15:53:00,
2013-08-24 12:08:00,74.5,54.6,30.10,West,270,2.2,-999.0,50,-99.99,,,0.00,Acu-Link.com,2013-08-24 16:08:00,
2013-08-24 12:23:00,75.6,55.6,30.10,SW,225,3.7,-999.0,50,-99.99,,,0.00,Acu-Link.com,2013-08-24 16:23:00,
2013-08-24 12:38:00,76.8,55.6,30.10,West,270,1.7,-999.0,48,-99.99,,,0.00,Acu-Link.com,2013-08-24 16:38:00,
2013-08-24 12:54:00,77.0,55.8,30.10,East,90,3.2,-999.0,48,-99.99,,,0.00,Acu-Link.com,2013-08-24 16:54:00,
2013-08-24 13:09:00,77.9,55.4,30.10,ESE,112,0.0,-999.0,46,-99.99,,,0.00,Acu-Link.com,2013-08-24 17:09:00,
2013-08-24 13:24:00,77.5,55.1,30.11,SE,135,1.7,-999.0,46,-99.99,,,0.00,Acu-Link.com,2013-08-24 17:24:00,
2013-08-24 13:40:00,78.6,55.5,30.10,SW,225,0.0,-999.0,45,-99.99,,,0.00,Acu-Link.com,2013-08-24 17:40:00,
2013-08-24 13:55:00,78.6,55.5,30.10,West,270,2.2,-999.0,45,-99.99,,,0.00,Acu-Link.com,2013-08-24 17:55:00,
2013-08-24 14:10:00,78.4,55.3,30.10,ESE,112,2.2,-999.0,45,-99.99,,,0.00,Acu-Link.com,2013-08-24 18:10:00,
2013-08-24 14:25:00,79.3,56.7,30.10,ESE,112,2.7,-999.0,46,-99.99,,,0.00,Acu-Link.com,2013-08-24 18:25:00,
2013-08-24 14:40:00,80.6,56.6,30.10,SW,225,1.1,-999.0,44,-99.99,,,0.00,Acu-Link.com,2013-08-24 18:40:00,
2013-08-24 14:56:00,79.2,55.4,30.11,West,270,1.7,-999.0,44,-99.99,,,0.00,Acu-Link.com,2013-08-24 18:56:00,
2013-08-24 15:11:00,80.6,56.6,30.10,WSW,247,2.7,-999.0,44,-99.99,,,0.00,Acu-Link.com,2013-08-24 19:11:00,
2013-08-24 15:26:00,80.4,55.8,30.10,ESE,112,4.7,-999.0,43,-99.99,,,0.00,Acu-Link.com,2013-08-24 19:26:00,
2013-08-24 15:41:00,79.9,56.0,30.10,WSW,247,0.0,-999.0,44,-99.99,,,0.00,Acu-Link.com,2013-08-24 19:41:00,
2013-08-24 15:56:00,80.6,56.0,30.10,WSW,247,5.3,-999.0,43,-99.99,,,0.00,Acu-Link.com,2013-08-24 19:56:00,
2013-08-24 16:12:00,80.2,55.0,30.10,NNE,22,2.7,-999.0,42,-99.99,,,0.00,Acu-Link.com,2013-08-24 20:12:00,
2013-08-24 16:27:00,81.1,55.1,30.10,West,270,4.2,-999.0,41,-99.99,,,0.00,Acu-Link.com,2013-08-24 20:27:00,
2013-08-24 16:42:00,81.3,53.2,30.10,ESE,112,2.7,-999.0,38,-99.99,,,0.00,Acu-Link.com,2013-08-24 20:42:00,
2013-08-24 16:57:00,81.9,51.5,30.09,East,90,1.1,-999.0,35,-99.99,,,0.00,Acu-Link.com,2013-08-24 20:57:00,
2013-08-24 17:13:00,82.6,51.4,30.10,East,90,4.2,-999.0,34,-99.99,,,0.00,Acu-Link.com,2013-08-24 21:13:00,
2013-08-24 17:28:00,80.4,51.7,30.10,WNW,292,0.0,-999.0,37,-99.99,,,0.00,Acu-Link.com,2013-08-24 21:28:00,
2013-08-24 17:43:00,80.8,56.2,30.10,NNW,337,1.1,-999.0,43,-99.99,,,0.00,Acu-Link.com,2013-08-24 21:43:00,
2013-08-24 17:59:00,80.2,56.9,30.10,NNW,337,1.7,-999.0,45,-99.99,,,0.00,Acu-Link.com,2013-08-24 21:59:00,
2013-08-24 18:14:00,80.1,58.6,30.10,ESE,112,4.7,-999.0,48,-99.99,,,0.00,Acu-Link.com,2013-08-24 22:14:00,
2013-08-24 18:29:00,81.0,59.4,30.11,NNE,22,2.2,-999.0,48,-99.99,,,0.00,Acu-Link.com,2013-08-24 22:29:00,
2013-08-24 18:44:00,81.3,59.7,30.11,ENE,67,4.7,-999.0,48,-99.99,,,0.00,Acu-Link.com,2013-08-24 22:44:00,
2013-08-24 19:00:00,78.1,58.5,30.11,NE,45,1.1,-999.0,51,-99.99,,,0.00,Acu-Link.com,2013-08-24 23:00:00,
2013-08-24 19:15:00,78.1,59.0,30.11,ESE,112,2.2,-999.0,52,-99.99,,,0.00,Acu-Link.com,2013-08-24 23:15:00,
2013-08-24 19:30:00,77.5,58.5,30.12,West,270,1.7,-999.0,52,-99.99,,,0.00,Acu-Link.com,2013-08-24 23:30:00,
2013-08-24 19:45:00,75.9,58.0,30.12,East,90,1.1,-999.0,54,-99.99,,,0.00,Acu-Link.com,2013-08-24 23:45:00,
2013-08-24 20:01:00,75.4,58.6,30.13,SSW,202,0.0,-999.0,56,-99.99,,,0.00,Acu-Link.com,2013-08-25 00:01:00,
2013-08-24 20:16:00,75.2,58.4,30.13,East,90,1.1,-999.0,56,-99.99,,,0.00,Acu-Link.com,2013-08-25 00:16:00,
2013-08-24 20:32:00,74.3,58.6,30.13,East,90,1.7,-999.0,58,-99.99,,,0.00,Acu-Link.com,2013-08-25 00:32:00,
2013-08-24 20:47:00,74.3,59.0,30.14,North,0,0.0,-999.0,59,-99.99,,,0.00,Acu-Link.com,2013-08-25 00:47:00,
2013-08-24 21:02:00,73.0,60.1,30.15,West,270,2.2,-999.0,64,-99.99,,,0.00,Acu-Link.com,2013-08-25 01:02:00,
2013-08-24 21:18:00,73.0,60.5,30.16,South,180,0.0,-999.0,65,-99.99,,,0.00,Acu-Link.com,2013-08-25 01:18:00,
2013-08-24 21:33:00,73.2,60.7,30.16,East,90,0.0,-999.0,65,-99.99,,,0.00,Acu-Link.com,2013-08-25 01:33:00,
2013-08-24 21:48:00,72.7,60.2,30.15,WSW,247,2.7,-999.0,65,-99.99,,,0.00,Acu-Link.com,2013-08-25 01:48:00,
2013-08-24 22:03:00,72.3,62.0,30.16,West,270,2.2,-999.0,70,-99.99,,,0.00,Acu-Link.com,2013-08-25 02:03:00,
2013-08-24 22:18:00,71.2,61.3,30.16,NW,315,3.2,-999.0,71,-99.99,,,0.00,Acu-Link.com,2013-08-25 02:18:00,
2013-08-24 22:33:00,70.9,61.8,30.16,West,270,3.2,-999.0,73,-99.99,,,0.00,Acu-Link.com,2013-08-25 02:33:00,
2013-08-24 22:49:00,70.7,61.6,30.16,WNW,292,1.7,-999.0,73,-99.99,,,0.00,Acu-Link.com,2013-08-25 02:49:00,
2013-08-24 23:04:00,70.3,61.2,30.15,West,270,1.7,-999.0,73,-99.99,,,0.00,Acu-Link.com,2013-08-25 03:04:00,
2013-08-24 23:20:00,70.0,61.3,30.16,NE,45,3.2,-999.0,74,-99.99,,,0.00,Acu-Link.com,2013-08-25 03:20:00,
2013-08-24 23:35:00,70.0,61.3,30.16,West,270,2.7,-999.0,74,-99.99,,,0.00,Acu-Link.com,2013-08-25 03:35:00,
2013-08-24 23:51:00,70.0,60.9,30.16,West,270,3.2,-999.0,73,-99.99,,,0.00,Acu-Link.com,2013-08-25 03:51:00,